Main page
METAR-TAF:

METAR-TAF

Airports :

Jask, Iran

latitude: 26-38N, longitude: 057-46E, elevation: 3 m

Current weather observation

The report was made 26 minutes ago, at 07:00 UTC
Wind 16 kt from the East/Southeast
Temperature 32°C
Humidity 84%
Pressure 1000 hPa
Visibility: 5000 m
mist

METAR: OIZJ 190700Z 12016KT 5000 BR NSC 32/29 Q1000

Time: 11:56 (07:26 UTC)


TAF: missing

Weather observations and forecasts of more than 4000 airports (METAR and TAF reports).

The available stations are represented by yellow and red dots on the map.

Hover mouse over dot to see the name of the station.

Then click to see weather observations and forecasts.

To change the map : click on the green buttons with a black cross to zoom in, on the green button with a dash to zoom out, or on the green arrows for adjacent maps.


METAR-TAF: